Location: Molveno
(46.1500°N, 10.9667°E)
Time: 06:55:43
(UTC+00:00)

Cosmos 1603 - Pass Details

Date: 05 July 2020
Orbit: 830 x 861 km, 71.0° (Epoch: 05 August)

Event Time Altitude Azimuth Distance (km) Brightness Sun altitude
Exits shadow 23:36:10 38° 153° (SSE) 1,259 4.2 -21.1°
Maximum altitude 23:37:45 49° 109° (ESE) 1,083 4.1 -21.1°
Drops below altitude 10° 23:43:13 10° 36° (NE) 2,490 7.0 -21.0°
Sets 23:45:45 0° 31° (NNE) 3,435 8.0 -21.0°
